Wind_Speed
52 65 60 60 77 79 81 79 78 73 72 79 84 87 88 87 87 84 88 76 70 64 63 64 66 68 65 64 64 65 73 73 76 76 76 68 65 63 61 60 63 66 63
43 39 42 63 83 74 87 85 79 77 85 87 91 93 95 96 98 96 86 78 71 67 64 62 63 65 65 66 65 42 71 61 64 68 72 77 77 68 66 67 66 70 70
49 37 62 67 82 82 83 81 81 86 89 94 95 94 96 100 100 90 86 76 73 71 68 68 67 66 62 54 60 70 67 65 61 69 90 90 81 77 71 72 73 71 64
62 65 72 77 81 83 83 84 85 89 92 96 98 99 102 104 96 92 85 81 77 76 74 74 73 72 69 68 69 78 77 79 85 91 95 91 83 79 80 80 75 70 62
72 72 77 79 85 88 87 88 91 91 95 100 104 107 107 97 91 85 81 77 75 72 70 70 70 69 68 69 71 75 79 82 86 89 91 90 86 82 77 73 70 67 67
76 79 79 83 84 83 84 87 88 98 101 106 106 99 97 92 86 80 75 75 74 73 73 74 73 73 73 74 75 76 79 83 84 85 85 84 80 79 76 74 72 72 70
80 76 77 77 81 85 86 86 94 100 101 102 100 95 91 87 83 82 80 79 77 77 80 82 83 83 83 84 87 88 88 91 92 93 92 90 86 84 82 80 78 80 74
82 81 82 86 85 85 88 94 103 109 105 94 90 90 86 85 84 84 83 85 89 90 91 92 92 93 93 91 91 92 94 96 97 96 96 98 96 91 89 88 86 87 82
82 86 90 93 90 90 93 107 96 94 93 91 91 87 87 87 87 90 93 96 98 98 97 93 87 87 84 82 82 82 84 85 86 88 89 91 94 91 90 92 88 91 87
90 92 98 95 94 99 108 100 93 91 93 92 89 89 91 91 96 98 99 99 94 90 86 81 76 72 69 66 66 67 67 69 68 70 74 76 77 80 84 87 89 85 88
94 99 104 102 104 107 100 94 92 93 89 89 89 91 95 98 101 98 92 90 85 79 74 69 64 59 58 56 53 55 55 57 57 57 57 60 62 65 75 81 83 85 88
103 106 100 106 111 101 95 94 94 90 90 91 92 95 97 93 86 79 76 72 68 64 59 56 54 49 46 45 43 43 44 45 45 44 44 48 51 55 60 71 80 80 87
105 105 109 113 99 96 94 93 91 91 92 96 100 91 80 72 70 68 63 58 54 51 47 44 42 40 40 39 37 37 36 36 37 39 39 39 41 42 50 59 68 75 82
102 106 106 96 94 91 91 89 88 90 95 97 88 78 66 62 58 54 50 46 43 41 39 37 36 34 33 32 31 30 30 30 29 30 31 30 30 33 41 48 55 67 79
104 100 96 94 89 85 85 87 89 94 93 83 76 66 62 54 47 42 37 35 33 31 30 29 29 28 27 24 22 22 23 23 22 20 20 22 23 26 31 36 46 58 78
102 98 92 88 83 83 85 89 93 90 81 69 65 61 49 41 32 27 26 27 26 26 27 27 26 24 22 19 18 18 17 16 14 13 12 12 13 18 25 31 40 44 61
95 89 86 82 81 83 87 88 84 75 67 52 49 40 34 29 30 30 29 28 29 28 27 26 26 25 23 21 19 18 15 12 10 8 8 8 10 13 17 23 31 38 42
85 83 82 80 82 85 85 79 69 64 47 41 36 33 31 32 33 33 34 34 31 30 30 28 25 22 20 19 20 20 15 12 9 7 4 2 6 10 14 21 26 29 37
80 80 82 84 83 81 74 67 60 48 36 32 28 29 30 31 33 34 35 35 35 33 34 34 30 25 22 20 17 15 15 15 12 9 4 1 3 10 13 17 22 27 32
82 83 84 82 76 70 64 58 49 32 29 26 23 25 29 30 31 32 33 34 35 35 36 36 35 28 24 20 18 15 14 11 9 8 4 4 3 3 7 12 15 18 21
82 81 78 70 65 60 55 45 31 24 21 22 24 26 26 29 30 31 32 33 35 37 37 38 40 31 25 22 18 15 13 11 8 6 4 4 2 5 9 12 14 16 18
74 68 63 60 54 47 39 27 22 19 20 22 26 28 30 31 33 33 33 34 35 36 37 38 39 33 26 22 18 15 13 12 11 9 6 3 3 1 3 7 12 17 20
57 54 50 44 37 28 23 20 20 21 23 25 28 31 34 35 36 36 35 36 35 35 36 36 36 33 25 20 16 14 13 13 12 10 8 7 6 5 2 5 8 9 11
42 38 31 23 21 20 19 19 20 26 29 30 32 34 36 37 35 34 32 32 33 33 32 31 32 29 23 18 14 13 13 13 15 18 19 20 20 19 16 14 12 13 16
23 18 17 16 16 19 20 21 23 24 25 27 29 27 27 27 27 25 23 22 22 22 23 23 26 21 19 18 19 19 21 24 27 29 29 29 30 30 30 30 28 26 25
12 13 15 17 18 19 20 21 22 23 24 23 24 24 25 25 22 20 18 16 16 13 13 16 17 15 16 19 22 26 28 28 28 28 27 27 28 29 31 31 33 32 34
Wind_Direction
319 311 290 276 306 310 311 313 316 312 312 314 311 308 311 309 306 307 311 308 303 298 292 288 285 283 284 285 284 287 287 290 292 291 286 283 284 283 284 282 280 282 282
316 321 283 282 298 297 304 308 312 309 310 310 307 307 307 306 311 312 309 306 301 297 292 290 286 284 283 280 285 299 286 288 286 280 277 284 286 285 282 282 283 283 283
302 293 286 294 300 301 304 307 309 308 307 305 303 303 304 307 308 307 306 303 299 295 292 289 287 285 281 275 255 264 268 273 268 270 279 284 285 285 283 279 280 280 275
296 295 298 301 301 303 303 304 305 303 303 303 303 302 302 304 306 306 304 301 298 295 292 289 287 284 279 274 269 269 269 268 267 273 275 280 280 279 280 281 279 276 272
296 294 295 298 301 303 305 305 303 303 302 301 301 303 304 305 305 304 303 301 298 296 294 291 288 284 281 277 275 273 271 269 268 269 271 273 275 275 275 275 274 274 273
300 298 298 300 302 304 304 302 303 301 299 301 304 305 305 305 306 305 302 300 298 297 295 293 290 286 283 280 277 275 273 271 270 269 269 269 270 270 271 271 271 271 271
302 303 306 307 306 305 304 306 303 299 302 305 304 305 306 306 305 303 302 301 299 296 295 292 289 286 283 280 278 275 271 268 266 267 267 266 266 266 267 267 267 267 266
304 304 307 309 309 307 305 302 301 302 304 304 305 307 306 305 303 302 302 301 299 298 294 292 291 288 286 282 278 274 271 269 267 265 264 264 262 261 261 262 263 263 264
306 307 307 309 307 304 304 304 306 306 306 306 308 308 305 305 304 304 303 301 299 297 295 293 292 289 285 281 278 275 272 268 266 265 263 260 257 256 254 256 258 262 263
306 307 308 307 305 305 310 308 308 308 308 309 309 308 307 307 306 304 301 300 298 297 296 293 291 289 288 285 282 279 276 273 270 267 263 260 255 252 249 248 250 252 257
303 304 306 306 307 309 310 309 309 309 309 309 308 308 309 308 305 304 303 301 302 300 299 299 296 293 290 287 284 280 278 274 270 267 265 261 256 249 244 243 243 245 249
301 304 307 308 310 310 310 309 310 310 310 310 309 310 308 307 305 303 302 301 301 302 300 299 299 298 295 292 289 287 283 279 276 272 267 261 257 249 243 240 239 240 243
303 305 307 308 309 310 310 311 311 311 312 312 312 311 312 309 308 307 305 306 307 307 309 309 308 306 302 298 295 292 287 282 279 276 271 263 257 253 241 238 237 237 240
302 306 307 307 308 310 310 309 310 312 312 314 315 318 318 315 312 310 310 311 314 316 315 315 314 311 308 303 299 294 291 287 281 277 272 265 258 247 239 237 231 230 236
306 307 307 307 308 309 308 310 312 313 316 319 322 324 323 320 317 318 320 323 324 328 328 328 327 324 317 312 310 308 304 296 290 284 276 265 254 240 233 234 227 224 223
306 306 306 307 309 309 311 313 314 317 321 326 326 330 331 331 334 343 350 353 354 358 359 356 351 344 339 337 337 331 324 310 302 294 283 267 247 236 231 225 221 219 219
304 304 305 306 308 309 311 313 315 318 322 324 333 345 355 7 11 9 4 0 1 1 356 357 358 3 5 6 3 355 347 347 339 310 277 246 233 230 220 215 213 218 220
302 303 303 306 306 309 310 311 313 315 315 319 331 345 356 0 1 3 4 4 6 6 3 359 356 350 349 357 4 6 13 9 13 15 341 218 184 186 202 205 210 215 217
300 301 302 305 307 306 308 309 310 309 305 316 327 341 349 352 356 359 1 2 6 7 9 7 358 353 353 355 356 358 357 11 34 44 50 14 190 179 192 197 208 214 218
298 301 303 302 304 304 305 305 305 296 300 311 324 333 340 342 345 349 353 357 360 1 5 4 3 357 356 354 356 356 356 1 359 356 15 70 99 168 198 201 203 204 211
299 299 300 301 301 302 302 302 294 291 298 309 319 323 325 329 333 338 342 347 350 354 359 1 2 0 3 6 9 11 13 16 15 7 343 312 237 202 198 195 190 198 203
297 298 298 299 300 301 300 293 287 291 300 305 310 314 318 320 321 324 331 333 337 344 351 355 359 1 4 6 11 19 23 32 35 37 39 30 349 343 231 217 211 209 211
294 297 299 300 301 299 291 285 288 293 299 303 305 307 308 308 310 313 318 320 324 330 337 347 355 359 5 11 15 22 34 37 38 41 45 52 62 75 130 194 205 203 183
299 299 301 301 299 293 291 293 297 300 302 302 302 301 302 304 305 308 309 309 310 315 324 337 350 359 8 18 31 38 44 53 65 74 78 79 80 81 86 95 110 135 149
300 303 301 295 294 298 297 297 300 302 306 310 310 312 312 314 318 319 321 324 317 316 321 335 350 7 23 42 54 67 79 85 88 90 89 87 85 84 85 87 93 103 116
298 301 305 307 312 316 321 322 321 325 325 323 321 326 325 325 328 328 329 326 331 337 338 347 4 32 51 67 81 89 93 94 94 89 84 84 87 89 90 93 96 102 109
Height
10819 10811 10799 10792 10783 10771 10760 10756 10752 10743 10734 10725 10727 10723 10719 10714 10707 10698 10686 10674 10664 10658 10652 10649 10644 10639 10637 10634 10631 10625 10616 10612 10610 10603 10603 10609 10612 10615 10612 10611 10607 10604 10602
10814 10804 10787 10782 10772 10763 10752 10747 10738 10729 10722 10712 10709 10704 10699 10687 10675 10666 10659 10653 10646 10637 10633 10628 10624 10620 10620 10618 10616 10616 10605 10594 10579 10583 10580 10583 10587 10590 10591 10590 10588 10585 10582
10808 10807 10774 10770 10763 10751 10741 10732 10723 10714 10705 10698 10693 10687 10679 10668 10657 10645 10637 10630 10623 10617 10612 10607 10603 10600 10599 10604 10593 10592 10593 10583 10567 10557 10556 10562 10564 10563 10566 10568 10569 10567 10564
10793 10788 10775 10761 10748 10738 10730 10720 10710 10699 10688 10677 10670 10665 10657 10648 10635 10624 10610 10601 10596 10591 10585 10581 10578 10575 10573 10572 10571 10563 10562 10560 10553 10546 10538 10539 10542 10543 10542 10540 10542 10544 10545
10770 10764 10756 10746 10733 10722 10712 10701 10693 10682 10670 10660 10651 10639 10627 10617 10609 10601 10589 10577 10569 10564 10559 10554 10549 10546 10544 10542 10540 10535 10533 10530 10527 10524 10520 10520 10521 10521 10523 10518 10520 10520 10521
10755 10748 10738 10726 10718 10706 10698 10688 10679 10664 10651 10643 10628 10615 10602 10590 10581 10573 10566 10557 10549 10542 10535 10528 10524 10520 10516 10512 10510 10508 10504 10497 10495 10493 10494 10494 10497 10497 10498 10499 10499 10500 10501
10732 10723 10716 10708 10699 10689 10678 10670 10660 10645 10635 10622 10605 10591 10580 10566 10557 10548 10540 10531 10524 10518 10511 10503 10495 10489 10486 10481 10474 10470 10468 10463 10460 10461 10463 10464 10470 10471 10474 10476 10478 10475 10483
10711 10704 10698 10691 10682 10670 10660 10651 10634 10618 10608 10595 10582 10569 10556 10544 10534 10524 10515 10506 10494 10486 10477 10468 10463 10453 10445 10440 10434 10429 10426 10422 10420 10425 10428 10429 10435 10441 10446 10447 10451 10452 10458
10697 10689 10681 10672 10662 10651 10640 10628 10609 10593 10580 10566 10555 10545 10530 10520 10508 10496 10484 10473 10460 10449 10439 10430 10423 10411 10404 10397 10393 10389 10384 10381 10382 10385 10388 10392 10396 10405 10415 10420 10426 10422 10431
10677 10668 10660 10651 10641 10629 10615 10599 10583 10570 10555 10542 10530 10517 10502 10491 10475 10465 10455 10438 10427 10416 10404 10395 10386 10378 10371 10367 10362 10356 10353 10349 10352 10354 10353 10355 10364 10373 10381 10390 10399 10404 10409
10655 10647 10639 10629 10618 10604 10589 10575 10560 10546 10536 10522 10510 10494 10478 10462 10445 10431 10416 10403 10393 10383 10373 10364 10357 10351 10344 10340 10337 10332 10328 10324 10323 10325 10328 10330 10335 10344 10351 10362 10373 10384 10391
10636 10626 10617 10605 10592 10578 10566 10550 10536 10524 10512 10497 10484 10470 10452 10435 10418 10406 10393 10383 10372 10364 10354 10343 10335 10330 10325 10320 10317 10312 10308 10305 10304 10306 10308 10309 10313 10320 10329 10339 10349 10363 10371
10614 10603 10594 10580 10567 10555 10543 10529 10513 10501 10489 10471 10455 10444 10427 10408 10394 10381 10370 10361 10353 10344 10336 10328 10322 10315 10309 10305 10301 10297 10293 10291 10289 10289 10291 10293 10296 10302 10310 10318 10328 10342 10351
10599 10590 10576 10559 10549 10537 10523 10509 10498 10485 10470 10453 10434 10417 10402 10390 10377 10365 10356 10348 10341 10333 10325 10318 10311 10305 10299 10295 10290 10287 10283 10280 10279 10278 10277 10280 10284 10288 10293 10302 10314 10327 10332
10578 10567 10552 10541 10532 10521 10506 10493 10481 10467 10453 10435 10416 10402 10388 10376 10365 10357 10348 10340 10333 10325 10318 10312 10305 10298 10293 10288 10284 10280 10277 10274 10271 10270 10270 10270 10273 10278 10284 10292 10301 10311 10325
10554 10543 10531 10522 10512 10499 10487 10475 10460 10449 10433 10419 10406 10392 10378 10367 10359 10351 10343 10336 10330 10323 10316 10309 10303 10296 10291 10285 10280 10276 10273 10270 10267 10265 10265 10265 10267 10271 10276 10283 10291 10301 10311
10534 10524 10513 10506 10495 10485 10473 10462 10448 10436 10426 10415 10403 10392 10380 10369 10361 10353 10346 10340 10331 10324 10318 10311 10304 10298 10292 10284 10279 10275 10271 10267 10265 10263 10262 10262 10264 10266 10271 10277 10285 10292 10303
10515 10505 10495 10489 10480 10469 10458 10448 10439 10428 10420 10413 10403 10392 10383 10374 10365 10356 10348 10340 10333 10326 10318 10311 10305 10299 10293 10287 10282 10277 10273 10269 10266 10263 10262 10262 10263 10266 10269 10274 10280 10287 10294
10497 10487 10479 10470 10463 10451 10444 10435 10427 10420 10413 10406 10398 10390 10382 10374 10366 10358 10351 10343 10336 10329 10321 10312 10305 10299 10292 10287 10282 10279 10275 10272 10269 10267 10265 10264 10265 10267 10269 10273 10278 10283 10289
10476 10469 10461 10452 10445 10436 10429 10420 10414 10409 10406 10400 10394 10387 10380 10373 10367 10360 10353 10346 10339 10331 10323 10314 10307 10299 10293 10287 10283 10279 10275 10272 10270 10268 10267 10267 10267 10269 10271 10273 10276 10280 10284
10459 10450 10442 10435 10428 10421 10413 10408 10404 10401 10398 10394 10388 10383 10377 10372 10366 10360 10353 10346 10339 10333 10324 10316 10308 10300 10293 10288 10283 10279 10275 10273 10270 10269 10267 10266 10267 10269 10270 10272 10275 10276 10280
10440 10433 10426 10419 10413 10407 10402 10398 10396 10394 10391 10387 10382 10377 10372 10368 10362 10357 10352 10345 10338 10332 10326 10318 10310 10302 10294 10288 10284 10281 10277 10275 10272 10270 10269 10267 10266 10266 10267 10267 10269 10271 10275
10424 10418 10413 10407 10401 10398 10395 10393 10390 10387 10384 10380 10376 10371 10366 10361 10356 10352 10348 10342 10337 10331 10326 10320 10312 10304 10297 10291 10287 10283 10280 10278 10276 10273 10271 10270 10268 10268 10267 10266 10267 10268 10271
10411 10407 10402 10398 10395 10393 10391 10388 10386 10381 10377 10373 10368 10363 10358 10353 10349 10345 10340 10337 10332 10328 10325 10320 10314 10306 10300 10294 10290 10287 10285 10283 10280 10279 10277 10275 10273 10272 10270 10269 10269 10271 10273
10402 10400 10397 10394 10392 10388 10387 10384 10379 10375 10370 10365 10358 10356 10351 10346 10341 10337 10334 10330 10326 10324 10322 10320 10316 10310 10304 10299 10296 10293 10291 10290 10289 10288 10287 10286 10284 10283 10281 10279 10279 10280 10281
10399 10397 10394 10391 10388 10384 10380 10376 10372 10367 10363 10359 10353 10349 10344 10339 10335 10332 10329 10326 10324 10322 10320 10319 10316 10313 10310 10306 10304 10302 10301 10300 10299 10299 10298 10297 10296 10295 10294 10294 10294 10296 10296